Location: Cañada de la Miga
(34.7595°N, 106.2317°W)
Time: 01:03:14
(UTC+00:00)

Courier 1B - Visible Passes

Search period start: 07 December 2021 00:00
Search period end: 17 December 2021 00:00
Orbit: 962 x 1209 km, 28.3° (Epoch: 06 December)

Date Brightness Start Highest point End Pass type
(mag) Time Alt. Az. Time Alt. Az. Time Alt. Az.
07 Dec 8.4 00:34:22 10° WSW 00:41:41 52° S 00:48:34 10° ESE visible
07 Dec 8.6 02:28:49 10° W 02:35:26 38° SSW 02:36:20 36° S visible
08 Dec 8.6 01:34:42 10° W 01:41:42 44° SSW 01:46:13 20° SE visible
08 Dec 9.7 03:29:55 10° WSW 03:33:08 19° SW 03:33:08 19° SW visible
09 Dec 8.6 00:40:38 10° W 00:47:55 49° S 00:54:48 10° ESE visible
09 Dec 9.1 02:35:29 10° WSW 02:41:32 28° SSW 02:43:06 26° S visible
10 Dec 9.0 01:41:13 10° W 01:47:50 34° SSW 01:53:11 14° SE visible
10 Dec 10.0 03:37:56 10° WSW 03:40:08 13° SW 03:40:08 13° SW visible
11 Dec 9.0 00:47:02 10° W 00:54:05 40° SSW 01:00:48 10° SE visible
11 Dec 9.7 02:42:42 10° WSW 02:47:31 19° SSW 02:50:19 15° S visible
12 Dec 9.6 01:48:02 10° WSW 01:53:52 24° SSW 01:59:28 10° SSE visible
13 Dec 9.5 00:53:38 10° W 01:00:10 30° SSW 01:06:25 10° SE visible
13 Dec 10.2 02:52:05 10° SW 02:53:25 11° SSW 02:54:45 10° SSW visible
14 Dec 10.1 01:55:40 10° WSW 01:59:48 15° SSW 02:03:50 10° S visible
15 Dec 10.1 01:00:42 10° WSW 01:06:09 21° SSW 01:11:26 10° SSE visible
